Flag for Germany Weather past 2 weeks in Grevenbroich, North Rhine-Westphalia, Germany

54 °F

Passing clouds.

Feels Like: 53 °F
Forecast: 38 / 55 °F
Wind: 5 mph from Northeast

Location: Monchengladbach Airport

Current Time: Oct 10, 2015 at 7:03:48 PM

Latest Report: Oct 10, 2015 at 6:20 PM

Visibility: N/A

Pressure: 30.07 "Hg

Humidity: 77%

Dew point: 46 °F

Location of GrevenbroichLocation

Historic Weather in Grevenbroich — Graph


Grevenbroich temperature yesterday

Maximum temperature yesterday: 59 °F (at 1:50 PM)
Minimum temperature yesterday: 48 °F (at 8:20 AM)
Average temperature yesterday: 56 °F

Past Weeks' High & Low Weather Summary

High68 °F (Oct 3, 3:50 PM)100% (Sep 26, 7:50 AM)30.63 "Hg (Sep 26, 7:50 AM)
Low36 °F (Oct 2, 7:50 AM)43% (Sep 30, 4:20 PM)29.56 "Hg (Oct 6, 4:20 PM)
Average58 °F76%30.19 "Hg
* Reported Sep 25 5:20 PM — Oct 10 5:50 PM, Grevenbroich, Weather by CustomWeather, © 2015

Note: Actual official high and low records may vary slightly from our data, if they occured in-between our weather recording intervals... More about our weather records


Grevenbroich weather history for previous 24 hours

Time TempWeatherWind HumidityBarometerVisibility
5:50 PM
Sat, Oct 10
55 °FPassing clouds.9 mph72%30.07 "Hg5 mi
5:20 PM57 °FPassing clouds.8 mph67%30.07 "Hg5 mi
4:50 PM57 °FPassing clouds.7 mph63%30.07 "Hg6 mi
4:20 PM57 °FPassing clouds.6 mph72%30.07 "Hg5 mi
3:50 PM55 °FPassing clouds.7 mph77%30.07 "Hg5 mi
3:20 PM54 °FPassing clouds.6 mph82%30.09 "Hg4 mi
2:50 PM54 °FPassing clouds.7 mph82%30.09 "Hg5 mi
2:20 PM54 °FPassing clouds.7 mph82%30.09 "HgN/A
1:50 PM54 °FPassing clouds.8 mph82%30.09 "HgN/A
1:20 PM52 °FPassing clouds.7 mph88%30.09 "Hg6 mi
12:50 PM52 °FPassing clouds.8 mph88%30.12 "Hg6 mi
12:20 PM54 °FPassing clouds.6 mph82%30.12 "Hg5 mi
11:50 AM52 °FPassing clouds.7 mph88%30.12 "Hg5 mi
11:20 AM52 °FPassing clouds.7 mph94%30.12 "Hg5 mi
10:50 AM52 °FFog.9 mph94%30.12 "Hg3 mi
10:20 AM54 °FFog.7 mph88%30.12 "Hg3 mi
9:50 AM54 °FFog.7 mph88%30.12 "Hg3 mi
9:20 AM54 °FPartly sunny.7 mph94%30.12 "Hg4 mi
8:50 AM54 °FPartly sunny.7 mph94%30.12 "Hg4 mi
8:20 AM54 °FPartly sunny.7 mph94%30.12 "Hg4 mi
7:50 AM54 °FPartly sunny.6 mph94%30.12 "Hg4 mi
8:20 PM
Fri, Oct 9
55 °FClear.3 mph88%30.15 "Hg10 mi
7:50 PM57 °FPassing clouds.5 mph82%30.15 "HgN/A
7:20 PM57 °FPassing clouds.3 mph82%30.15 "HgN/A
Weather by CustomWeather, © 2015

See weather overviewHow to use our weather pages